Location: Andrest
(43.3200°N, 0.0641°E)
Time: 21:57:29
(UTC+00:00)

USA 281 - Pass Details

Date: 01 December 2020
Orbit: 1074 x 1084 km, 106.0° (Epoch: 08 January)

Event Time Altitude Azimuth Distance (km) Brightness Sun altitude
Rises 19:03:14 0° 161° (SSE) 3,869 6.0 -28.1°
Reaches altitude 10° 19:05:45 10° 164° (SSE) 2,915 5.4 -28.6°
Maximum altitude 19:12:17 71° 248° (WSW) 1,141 3.4 -29.7°
Drops below altitude 10° 19:18:51 10° 332° (NNW) 2,926 5.7 -30.9°
Sets 19:21:23 0° 335° (NNW) 3,884 6.4 -31.4°
